FW7959 Weather Reports


time (UTC)temp
C
wind
direction
speed
KPH
gust
KPH
rain 1hr
cm
rain 24hr
cm
rain mn
cm
humidity
%
barometer
mb
20260506220351 12 271 0.0 0.0 0.00 0.00 0.00 57 1010.0
20260506215854 12 271 0.0 0.0 0.00 0.00 0.00 57 1010.0
20260506215352 12 271 0.0 0.0 0.00 0.00 0.00 57 1010.1
20260506214854 12 271 0.0 0.0 0.00 0.00 0.00 56 1010.1
20260506214356 12 271 0.0 0.0 0.00 0.00 0.00 56 1010.1
20260506213858 12 271 0.0 0.0 0.00 0.00 0.00 57 1010.1
20260506213358 12 271 0.0 0.0 0.00 0.00 0.00 57 1010.1
20260506212859 12 271 0.0 0.0 0.00 0.00 0.00 57 1010.1
20260506211842 12 271 0.0 0.0 0.00 0.00 0.00 55 1010.0
20260506210849 12 271 0.0 0.0 0.00 0.00 0.00 52 1010.0
20260506205343 12 271 0.0 0.0 0.00 0.00 0.00 50 1010.1
20260506204900 12 271 0.0 0.0 0.00 0.00 0.00 52 1010.1
20260506204340 12 271 0.0 0.0 0.00 0.00 0.00 51 1010.0
20260506203901 12 271 0.0 0.0 0.00 0.00 0.00 50 1010.0
20260506203359 13 244 0.0 0.0 0.00 0.00 0.00 48 1009.9
20260506202855 13 239 0.0 0.0 0.00 0.00 0.00 46 1009.9
20260506202353 13 240 0.0 0.0 0.00 0.00 0.00 46 1009.8
20260506201852 13 240 0.0 0.0 0.00 0.00 0.00 46 1009.8
20260506201350 13 240 0.0 0.0 0.00 0.00 0.00 46 1009.8
20260506200850 13 240 0.0 0.0 0.00 0.00 0.00 49 1009.8
20260506200351 13 240 0.0 0.0 0.00 0.00 0.00 50 1009.7
20260506195852 13 240 0.0 0.0 0.00 0.00 0.00 49 1009.7
20260506195353 13 239 0.0 0.0 0.00 0.00 0.00 48 1009.7
20260506194850 14 240 0.0 0.0 0.00 0.00 0.00 46 1009.6
20260506194351 14 240 0.0 0.0 0.00 0.00 0.00 45 1009.6
20260506193849 15 222 0.0 0.0 0.00 0.00 0.00 44 1009.6
20260506193347 16 215 0.0 0.0 0.00 0.00 0.00 43 1009.6
20260506192849 16 215 0.0 0.0 0.00 0.00 0.00 41 1009.4
20260506192350 17 215 0.0 0.0 0.00 0.00 0.00 38 1009.4
20260506191850 18 215 0.0 0.0 0.00 0.00 0.00 35 1009.4
20260506191353 18 215 0.0 0.0 0.00 0.00 0.00 32 1009.4
20260506190854 18 215 0.0 0.0 0.00 0.00 0.00 31 1009.4
20260506190357 18 215 0.0 0.0 0.00 0.00 0.00 31 1009.4
20260506185401 18 215 0.0 0.0 0.00 0.00 0.00 31 1009.4
20260506184901 18 215 0.0 0.0 0.00 0.00 0.00 31 1009.4
20260506184342 19 215 0.0 0.0 0.00 0.00 0.00 31 1009.3
20260506183846 19 215 0.0 0.0 0.00 0.00 0.00 30 1009.3
20260506183348 19 215 0.0 0.0 0.00 0.00 0.00 30 1009.4
20260506182850 19 215 0.0 0.0 0.00 0.00 0.00 30 1009.3
20260506182352 19 215 0.0 0.0 0.00 0.00 0.00 30 1009.4
20260506181851 19 217 0.0 0.0 0.00 0.00 0.00 30 1009.4
20260506181351 19 215 0.0 0.0 0.00 0.00 0.00 30 1009.4
20260506180853 19 214 0.0 12.9 0.00 0.00 0.00 30 1009.4
20260506180355 19 215 0.0 12.9 0.00 0.00 0.00 30 1009.3
20260506175854 19 211 4.8 11.3 0.00 0.00 0.00 30 1009.4
20260506175358 19 198 0.0 11.3 0.00 0.00 0.00 31 1009.4
20260506174859 18 175 4.8 12.9 0.00 0.00 0.00 31 1009.4
20260506174359 19 152 8.0 12.9 0.00 0.00 0.00 30 1009.4
20260506173902 19 161 0.0 0.0 0.00 0.00 0.00 31 1009.4
20260506173343 19 142 0.0 0.0 0.00 0.00 0.00 31 1009.5
20260506172902 19 66 0.0 0.0 0.00 0.00 0.00 30 1009.5
20260506172343 19 66 0.0 0.0 0.00 0.00 0.00 30 1009.4
20260506171844 19 134 0.0 9.7 0.00 0.00 0.00 31 1009.5
20260506170850 18 124 9.7 12.9 0.00 0.00 0.00 31 1009.5
20260506170353 19 109 8.0 12.9 0.00 0.00 0.00 30 1009.5
20260506165900 19 198 3.2 11.3 0.00 0.00 0.00 30 1009.5
20260506165344 19 217 0.0 0.0 0.00 0.00 0.00 31 1009.5
20260506164846 19 252 0.0 0.0 0.00 0.00 0.00 32 1009.5
20260506164349 19 205 0.0 0.0 0.00 0.00 0.00 30 1009.6
20260506163852 19 202 0.0 0.0 0.00 0.00 0.00 30 1009.6
20260506163355 19 202 0.0 0.0 0.00 0.00 0.00 30 1009.7
20260506162858 19 202 0.0 12.9 0.00 0.00 0.00 31 1009.7
20260506162359 18 162 0.0 12.9 0.00 0.00 0.00 32 1009.7
20260506161859 18 212 0.0 3.2 0.00 0.00 0.00 32 1009.7
20260506161358 18 213 0.0 0.0 0.00 0.00 0.00 33 1009.7
20260506160858 18 213 0.0 9.7 0.00 0.00 0.00 31 1009.8
20260506160400 19 213 6.4 12.9 0.00 0.00 0.00 31 1009.8
20260506155842 20 207 8.0 12.9 0.00 0.00 0.00 30 1009.9
20260506155344 20 269 0.0 0.0 0.00 0.00 0.00 31 1009.9
20260506154354 19 196 0.0 8.0 0.00 0.00 0.00 32 1009.9
20260506153857 18 196 0.0 12.9 0.00 0.00 0.00 34 1009.9
20260506153400 18 107 9.7 12.9 0.00 0.00 0.00 32 1010.0
20260506152901 18 184 4.8 9.7 0.00 0.00 0.00 32 1010.0
20260506152401 18 189 0.0 9.7 0.00 0.00 0.00 34 1010.0
20260506151842 18 187 0.0 14.5 0.00 0.00 0.00 33 1010.1
20260506151401 18 151 3.2 14.5 0.00 0.00 0.00 33 1010.1
20260506150901 18 133 0.0 17.7 0.00 0.00 0.00 34 1010.2
20260506145845 18 202 8.0 14.5 0.00 0.00 0.00 34 1010.4
20260506145344 18 119 9.7 14.5 0.00 0.00 0.00 35 1010.5
20260506144846 18 173 1.6 16.1 0.00 0.00 0.00 36 1010.6
20260506144350 18 173 8.0 17.7 0.00 0.00 0.00 36 1010.6
20260506143851 18 151 8.0 17.7 0.00 0.00 0.00 38 1010.5
20260506143351 17 63 0.0 0.0 0.00 0.00 0.00 37 1010.6
20260506142851 17 65 0.0 0.0 0.00 0.00 0.00 38 1010.8
20260506142352 17 76 0.0 0.0 0.00 0.00 0.00 37 1010.8
20260506141854 17 100 0.0 11.3 0.00 0.00 0.00 39 1010.9
20260506140902 17 109 9.7 14.5 0.00 0.00 0.00 37 1011.0
20260506140345 18 98 0.0 9.7 0.00 0.00 0.00 37 1011.1
20260506135848 18 214 3.2 9.7 0.00 0.00 0.00 36 1011.2
20260506135350 18 48 0.0 12.9 0.00 0.00 0.00 38 1011.2
20260506134851 18 61 6.4 20.9 0.00 0.00 0.00 37 1011.2
20260506133854 18 78 0.0 0.0 0.00 0.00 0.00 43 1011.3
20260506131848 17 63 0.0 0.0 0.00 0.00 0.00 40 1011.5
20260506131352 18 49 0.0 0.0 0.00 0.00 0.00 38 1011.5
20260506130855 18 51 0.0 0.0 0.00 0.00 0.00 40 1011.7
20260506130356 18 107 0.0 0.0 0.00 0.00 0.00 43 1011.7
20260506125900 17 183 0.0 0.0 0.00 0.00 0.00 42 1011.8
20260506125343 17 104 0.0 0.0 0.00 0.00 0.00 40 1011.7
20260506124347 17 215 4.8 16.1 0.00 0.00 0.00 39 1012.0
20260506123351 17 95 9.7 19.3 0.00 0.00 0.00 41 1012.0
20260506122854 17 70 9.7 19.3 0.00 0.00 0.00 40 1012.0
20260506122356 17 86 4.8 12.9 0.00 0.00 0.00 41 1012.1
20260506121857 17 101 3.2 8.0 0.00 0.00 0.00 40 1012.2
20260506121357 17 244 0.0 11.3 0.00 0.00 0.00 43 1012.2
20260506120858 17 246 1.6 11.3 0.00 0.00 0.00 41 1012.3
20260506120400 17 239 0.0 0.0 0.00 0.00 0.00 42 1012.3
20260506115844 17 234 0.0 0.0 0.00 0.00 0.00 43 1012.4
20260506115346 16 234 0.0 8.0 0.00 0.00 0.00 43 1012.5
20260506114850 16 213 0.0 17.7 0.00 0.00 0.00 44 1012.5
20260506114351 16 116 6.4 17.7 0.00 0.00 0.00 45 1012.6
20260506113855 16 111 0.0 11.3 0.00 0.00 0.00 44 1012.7
20260506113355 16 188 0.0 17.7 0.00 0.00 0.00 45 1012.7
20260506112856 16 125 11.3 17.7 0.00 0.00 0.00 46 1012.7
20260506112400 16 196 0.0 12.9 0.00 0.00 0.00 45 1012.7
20260506111900 16 67 3.2 12.9 0.00 0.00 0.00 46 1012.8
20260506111400 16 88 3.2 12.9 0.00 0.00 0.00 47 1012.8
20260506110900 16 223 0.0 0.0 0.00 0.00 0.00 47 1012.9
20260506110359 16 230 0.0 0.0 0.00 0.00 0.00 47 1012.9
20260506105844 16 130 0.0 0.0 0.00 0.00 0.00 48 1013.1
20260506105345 15 86 0.0 6.4 0.00 0.00 0.00 50 1013.0
20260506104849 15 84 0.0 12.9 0.00 0.00 0.00 50 1013.1
20260506103856 16 96 8.0 12.9 0.00 0.00 0.00 49 1013.2
20260506103359 16 19 0.0 0.0 0.00 0.00 0.00 50 1013.2
20260506102859 15 76 0.0 0.0 0.00 0.00 0.00 50 1013.2
20260506101848 15 59 0.0 0.0 0.00 0.00 0.00 52 1013.3
20260506100358 15 132 0.0 0.0 0.00 0.00 0.00 52 1013.4
20260506095859 15 128 0.0 0.0 0.00 0.00 0.00 52 1013.4
20260506095357 14 101 0.0 0.0 0.00 0.00 0.00 54 1013.5
20260506094859 14 100 0.0 0.0 0.00 0.00 0.00 53 1013.4
20260506094358 14 102 0.0 0.0 0.00 0.00 0.00 51 1013.4
20260506093401 14 105 0.0 0.0 0.00 0.00 0.00 52 1013.5
20260506092859 14 157 0.0 0.0 0.00 0.00 0.00 55 1013.4
20260506092359 13 138 0.0 0.0 0.00 0.00 0.00 55 1013.5
20260506091858 13 132 0.0 0.0 0.00 0.00 0.00 55 1013.5
20260506091359 14 122 0.0 0.0 0.00 0.00 0.00 55 1013.5
20260506090843 13 38 0.0 0.0 0.00 0.00 0.00 56 1013.5
20260506090346 13 61 0.0 8.0 0.00 0.00 0.00 56 1013.6
20260506085846 13 59 0.0 14.5 0.00 0.00 0.00 57 1013.6
20260506085348 13 60 4.8 14.5 0.00 0.00 0.00 58 1013.5
20260506084848 13 74 8.0 14.5 0.00 0.00 0.00 58 1013.5
20260506084351 13 109 9.7 14.5 0.00 0.00 0.00 58 1013.6
20260506083855 13 52 6.4 17.7 0.00 0.00 0.00 60 1013.5
20260506083355 12 80 8.0 17.7 0.00 0.00 0.00 59 1013.6
20260506082401 13 83 11.3 16.1 0.00 0.00 0.00 58 1013.6
20260506081902 13 114 0.0 9.7 0.00 0.00 0.00 59 1013.6
20260506081343 12 59 4.8 12.9 0.00 0.00 0.00 60 1013.6
20260506080848 12 91 8.0 12.9 0.00 0.00 0.00 61 1013.6
20260506080349 12 65 6.4 14.5 0.00 0.00 0.00 62 1013.5
20260506073400 12 63 4.8 6.4 0.00 0.00 0.00 61 1013.7
20260506072901 12 55 3.2 6.4 0.00 0.00 0.00 63 1013.7
20260506072401 11 53 0.0 9.7 0.00 0.00 0.00 65 1013.7
20260506071844 11 52 4.8 9.7 0.00 0.00 0.00 65 1013.7
20260506070848 11 5 0.0 0.0 0.00 0.00 0.00 66 1013.7
20260506070350 11 5 0.0 0.0 0.00 0.00 0.00 68 1013.6
20260506062346 8 5 3.2 4.8 0.00 0.00 0.00 78 1013.4
20260506061848 8 5 3.2 4.8 0.00 0.00 0.00 78 1013.4
20260506061350 8 5 1.6 3.2 0.00 0.00 0.00 79 1013.4
20260506060852 7 5 0.0 0.0 0.00 0.00 0.00 79 1013.4
20260506060355 7 5 0.0 1.6 0.00 0.00 0.00 79 1013.4
20260506050856 6 5 0.0 3.2 0.00 0.00 0.00 78 1013.1
20260506050357 7 5 0.0 3.2 0.00 0.00 0.00 78 1012.9
20260506044348 7 5 0.0 4.8 0.00 0.00 0.00 76 1012.7
20260506043850 7 5 1.6 4.8 0.00 0.00 0.00 76 1012.7
20260506043352 7 5 0.0 6.4 0.00 0.00 0.00 75 1012.7
20260506042855 7 5 4.8 9.7 0.00 0.00 0.00 74 1012.7
20260506042357 8 5 6.4 11.3 0.00 0.00 0.00 75 1012.7
20260506041857 8 5 8.0 11.3 0.00 0.00 0.00 75 1012.8
20260506041359 8 9 8.0 9.7 0.00 0.00 0.00 74 1012.8
20260506040858 8 11 8.0 9.7 0.00 0.00 0.00 74 1012.8
20260506035901 8 13 9.7 11.3 0.00 0.00 0.00 75 1012.7
20260506034849 8 17 9.7 11.3 0.00 0.00 0.00 76 1012.8
20260506034349 7 9 9.7 11.3 0.00 0.00 0.00 75 1012.8
20260506033850 8 5 8.0 11.3 0.00 0.00 0.00 74 1012.9
20260506032356 8 5 8.0 11.3 0.00 0.00 0.00 73 1012.9
20260506031855 8 355 9.7 11.3 0.00 0.00 0.00 74 1012.8
20260506030858 8 337 6.4 9.7 0.00 0.00 0.00 73 1012.9
20260506025844 7 325 8.0 9.7 0.00 0.00 0.00 74 1012.8
20260506025342 7 308 8.0 8.0 0.00 0.00 0.00 73 1012.8
20260506024843 8 307 3.2 6.4 0.00 0.00 0.00 72 1012.8
20260506024343 8 307 4.8 8.0 0.00 0.00 0.00 71 1012.8
20260506023344 8 276 6.4 8.0 0.00 0.00 0.00 72 1012.8
20260506022843 8 265 3.2 9.7 0.00 0.00 0.00 70 1012.8
20260506022347 9 263 4.8 9.7 0.00 0.00 0.00 67 1012.8
20260506021845 10 263 6.4 8.0 0.00 0.00 0.00 66 1012.7
20260506021351 10 263 1.6 8.0 0.00 0.00 0.00 66 1012.7
20260506020854 10 263 6.4 8.0 0.00 0.00 0.00 66 1012.8
20260506015859 10 178 0.0 0.0 0.00 0.00 0.00 66 1012.8
20260506015343 10 178 0.0 9.7 0.00 0.00 0.00 65 1012.7
20260506014902 10 178 0.0 9.7 0.00 0.00 0.00 65 1012.8
20260506013846 10 220 0.0 6.4 0.00 0.00 0.00 63 1012.7
20260506013346 11 220 0.0 0.0 0.00 0.00 0.00 63 1012.8
20260506012849 10 219 0.0 0.0 0.00 0.00 0.00 63 1012.8
20260506012350 11 219 0.0 0.0 0.00 0.00 0.00 63 1012.8
20260506011853 11 219 0.0 0.0 0.00 0.00 0.00 63 1012.8
20260506011353 10 219 0.0 0.0 0.00 0.00 0.00 63 1012.8
20260506010345 10 227 3.2 6.4 0.00 0.00 0.00 63 1012.8
20260506005848 10 295 0.0 4.8 0.00 0.00 0.00 63 1012.9
20260506005351 11 295 0.0 11.3 0.00 0.00 0.00 62 1012.9
20260506004851 11 296 3.2 12.9 0.00 0.00 0.00 62 1012.9
20260506004356 11 293 6.4 14.5 0.00 0.00 0.00 62 1012.8
20260506003855 11 290 11.3 16.1 0.00 0.00 0.00 62 1012.8
20260506003354 11 292 9.7 17.7 0.00 0.00 0.00 62 1013.0
20260506002857 11 297 9.7 17.7 0.00 0.00 0.00 62 1012.9
20260506002400 11 300 12.9 16.1 0.00 0.00 0.00 63 1013.1
20260506001901 11 303 11.3 16.1 0.00 0.00 0.00 63 1013.0
20260506001342 11 306 8.0 19.3 0.00 0.00 0.00 63 1013.1
20260506000350 11 294 12.9 17.7 0.00 0.00 0.00 64 1013.2
20260505235850 11 299 11.3 17.7 0.00 0.00 0.00 64 1013.2
20260505235348 11 294 12.9 22.5 0.00 0.00 0.00 64 1013.2
20260505234851 11 278 14.5 22.5 0.00 0.00 0.00 63 1013.1
20260505233857 11 284 14.5 24.1 0.00 0.00 0.00 64 1013.0
20260505233359 11 292 16.1 22.5 0.00 0.00 0.00 64 1013.0
20260505232858 11 288 16.1 22.5 0.00 0.00 0.00 64 1012.9
20260505232400 11 298 17.7 22.5 0.00 0.00 0.00 65 1012.9
20260505231842 11 296 14.5 22.5 0.00 0.00 0.00 64 1012.9
20260505231342 11 286 14.5 24.1 0.00 0.00 0.00 64 1012.8
20260505230842 11 298 16.1 24.1 0.00 0.00 0.00 64 1012.7
20260505225845 11 284 19.3 27.4 0.00 0.00 0.00 63 1012.7
20260505225344 11 294 14.5 24.1 0.00 0.00 0.00 62 1012.7
20260505224843 11 300 17.7 27.4 0.00 0.00 0.00 61 1012.7
20260505224345 11 290 16.1 27.4 0.00 0.00 0.00 60 1012.8
20260505223850 12 289 17.7 29.0 0.00 0.00 0.00 60 1012.7
20260505223355 12 273 20.9 29.0 0.00 0.00 0.00 60 1012.7
20260505222855 12 300 19.3 25.7 0.00 0.00 0.00 60 1012.7
20260505222358 12 280 19.3 25.7 0.00 0.00 0.00 60 1012.7
20260505220842 12 279 16.1 25.7 0.00 0.00 0.00 59 1012.7